Theta_e
312 311 310 310 310 310 309 309 310 309 310 310 311 312 312 311 312 312 312 312 312 312 312 312 311 312 303 292 292 301 313 308 302 301 311 307 299 298 292 296 303 306 305 310 313 314 314
310 310 311 310 310 310 309 309 310 310 310 310 310 311 311 311 311 311 312 312 312 312 312 312 312 311 299 288 302 304 303 304 300 296 297 306 300 300 296 294 298 297 302 306 306 305 306
310 311 310 310 310 309 309 308 309 309 309 310 310 310 310 310 311 311 312 313 312 312 313 313 313 308 297 293 304 305 304 301 300 301 295 298 307 300 296 292 296 295 293 295 297 299 300
310 310 310 310 310 309 309 309 308 308 309 310 310 310 310 310 310 311 312 313 313 315 315 313 314 303 292 305 305 303 303 301 303 302 299 299 299 295 295 296 296 293 291 290 297 297 299
310 310 310 309 309 309 309 309 309 309 309 309 310 310 310 310 310 311 312 312 313 314 315 314 302 297 292 307 303 306 304 300 301 300 300 303 297 293 295 290 287 289 288 288 292 298 298
309 309 309 309 309 308 309 309 309 309 309 309 309 310 309 310 311 311 311 312 312 312 312 310 308 294 295 295 301 303 304 302 299 297 295 293 290 287 287 287 283 285 286 289 290 296 298
308 308 309 309 309 309 309 309 308 308 309 309 309 309 310 310 310 311 306 298 294 292 294 291 293 294 296 300 303 300 302 299 297 294 285 288 284 282 288 290 291 289 288 288 292 297 296
308 308 308 308 309 308 308 308 308 309 308 309 309 309 309 310 310 310 299 295 296 296 288 296 295 295 299 299 294 297 300 292 290 285 287 285 282 287 290 290 289 288 285 285 290 294 293
307 307 308 308 308 308 308 308 308 308 309 309 308 308 309 309 309 301 297 298 300 295 286 291 295 294 296 297 293 294 297 293 288 285 284 282 285 291 289 288 286 286 285 286 287 292 293
307 307 307 307 306 306 307 307 308 308 307 307 308 308 309 308 300 297 296 301 301 296 281 286 292 294 296 296 291 299 299 294 289 285 287 283 287 287 286 286 287 281 290 290 290 287 282
307 307 307 307 307 307 307 307 307 307 307 308 308 308 308 307 296 296 299 300 298 293 271 289 292 300 298 291 292 295 301 294 289 287 286 284 284 283 283 285 288 285 289 288 288 285 283
307 307 307 307 307 307 308 307 307 307 308 308 308 308 307 301 296 299 301 298 294 279 270 286 291 290 290 291 292 294 295 300 299 292 291 288 289 287 286 288 289 290 287 286 285 283 277
307 307 307 307 307 307 308 307 307 307 308 308 308 308 304 303 294 299 298 291 278 273 286 285 286 289 288 287 289 290 289 288 286 283 284 288 286 289 289 284 286 285 279 274 274 274 276
307 307 307 308 308 308 308 308 307 307 307 307 307 303 303 303 299 299 292 284 275 280 283 290 289 288 284 287 287 288 287 284 291 289 285 282 279 286 290 285 282 281 280 275 273 274 276
309 308 309 309 309 309 308 307 307 307 306 306 304 296 296 299 302 296 288 277 275 283 288 287 287 283 282 286 286 285 284 285 290 291 284 283 283 292 291 290 287 282 278 283 278 279 275
308 308 308 308 308 308 308 308 308 307 306 305 293 294 297 301 299 293 285 283 283 289 291 289 282 285 280 282 282 283 284 289 289 293 293 288 281 289 291 290 289 285 286 278 276 273 273
308 308 308 308 308 307 307 307 308 307 306 305 292 292 298 299 298 289 278 282 287 293 293 289 285 285 284 282 283 282 284 288 292 291 292 289 285 285 289 286 283 284 281 281 279 278 275
308 308 308 308 307 307 307 307 307 307 304 301 289 286 298 297 285 280 278 285 292 291 294 292 290 289 285 285 284 284 284 288 294 292 286 289 284 281 284 289 290 286 283 283 279 278 279
308 308 308 308 308 307 306 306 306 307 305 299 291 291 298 294 277 277 284 287 290 290 290 290 289 289 289 286 282 286 287 293 293 291 288 290 283 278 279 285 288 283 286 284 283 283 280
309 309 309 308 308 308 307 307 307 307 305 297 290 283 287 287 285 282 284 285 287 292 291 291 289 291 288 286 289 286 287 291 292 292 297 293 286 280 275 280 284 282 285 286 284 279 279
309 309 309 309 309 309 308 308 307 307 304 293 287 282 287 278 281 284 287 287 286 285 292 291 288 288 288 285 285 284 288 289 291 294 290 290 283 282 284 286 286 285 284 285 283 284 281
308 308 309 309 309 308 308 308 307 307 303 291 281 284 286 283 285 284 284 286 286 288 288 287 287 289 288 285 285 284 287 287 287 289 288 289 282 285 282 285 286 284 286 286 286 286 285
307 308 309 309 309 308 308 308 307 307 300 292 292 288 287 285 282 280 280 286 287 288 290 291 291 288 287 289 292 292 292 290 290 288 285 284 284 280 278 284 284 279 284 286 287 288 287
308 308 309 309 309 309 308 307 307 307 303 298 295 293 288 281 282 283 286 286 286 288 287 291 291 289 293 294 292 292 289 289 290 289 291 286 284 282 278 282 273 286 294 293 289 289 291
309 309 309 309 308 309 308 307 307 307 307 299 298 294 290 284 284 285 287 287 287 291 290 290 291 293 291 288 284 282 286 288 289 290 290 289 286 282 279 278 283 286 290 290 289 288 294
308 308 308 308 307 306 306 307 307 307 307 303 299 298 293 287 283 289 285 286 283 285 289 289 292 292 289 283 282 279 276 284 284 287 293 292 288 284 282 277 276 286 290 294 294 285 298
307 307 306 305 305 305 305 305 306 306 307 304 300 299 295 287 289 289 287 286 288 288 286 290 289 287 286 281 280 279 281 286 281 281 283 286 286 281 281 279 284 289 290 292 286 285 298
306 305 304 304 304 303 303 304 306 305 306 303 301 300 296 291 292 294 292 288 288 288 286 289 288 286 284 282 282 282 282 285 284 286 285 284 283 282 283 281 278 291 289 287 293 299 299
304 303 302 302 302 303 303 303 304 305 305 305 298 301 301 294 292 297 297 298 296 294 291 292 289 290 289 287 285 285 279 285 285 281 289 281 286 284 284 283 291 293 291 295 296 298 299
Wind_Speed
16 15 16 17 18 18 18 18 18 19 19 20 20 21 21 21 22 22 21 21 20 19 17 15 12 9 4 4 13 7 16 14 7 8 2 5 8 4 8 7 5 15 4 8 19 11 9
14 15 16 16 17 17 18 19 19 20 20 20 21 21 22 22 22 22 22 22 20 20 17 11 7 3 3 4 6 5 6 9 2 2 5 6 7 7 5 6 18 3 11 14 7 6 4
15 16 16 17 17 17 17 17 18 19 20 20 21 22 23 24 25 25 24 22 19 18 15 8 7 6 5 15 3 7 6 5 3 5 4 5 12 5 3 2 7 2 5 4 6 4 7
16 16 17 17 17 18 18 18 18 18 19 20 20 21 22 22 23 24 25 26 23 16 8 2 8 4 9 6 4 7 4 5 6 6 10 10 6 3 6 4 2 4 5 15 14 8 7
16 16 17 17 18 18 18 18 18 19 20 21 21 20 22 22 22 23 24 24 20 4 6 8 3 3 12 5 3 8 7 4 5 3 6 11 5 7 3 4 4 4 15 11 8 9 9
16 17 17 17 18 18 18 19 19 20 21 21 21 21 21 22 21 22 24 19 12 7 5 6 2 2 7 7 5 4 6 7 4 3 3 4 4 4 4 7 17 9 10 2 6 6 14
16 17 17 17 18 18 18 19 20 20 21 22 22 22 21 22 22 21 10 6 8 7 3 6 8 4 18 8 7 4 4 3 3 2 3 4 4 14 15 13 10 4 2 1 0 3 4
16 17 18 18 19 19 19 20 21 22 22 22 23 24 23 22 21 16 3 4 4 5 11 8 14 10 14 5 6 6 2 3 4 4 3 4 12 6 3 6 8 6 1 3 5 9 5
17 17 18 18 19 19 19 20 21 22 22 22 23 24 23 22 23 2 1 3 4 4 2 9 7 5 9 4 5 7 1 1 1 2 5 7 6 3 6 5 5 5 8 3 6 7 12
17 17 18 18 18 19 21 22 22 23 23 24 24 22 21 24 3 3 4 2 5 4 3 7 7 4 8 12 2 18 6 4 4 6 3 6 7 5 6 5 7 5 6 2 1 3 6
18 18 19 19 19 20 22 22 22 24 24 23 24 23 19 11 4 1 3 6 2 4 4 10 5 5 15 2 9 3 11 1 9 6 2 10 5 2 5 6 7 12 11 9 6 6 3
18 19 19 19 20 21 21 22 23 24 24 24 24 22 17 1 1 5 6 4 4 7 6 7 7 11 12 7 8 6 4 2 4 4 6 17 3 6 8 6 4 1 5 4 3 3 7
17 18 19 20 20 20 21 22 24 26 26 27 28 23 5 2 3 3 3 5 6 5 5 6 8 11 15 6 9 6 9 7 3 5 4 3 8 7 5 4 0 3 5 2 1 3 12
17 18 18 18 20 21 21 22 24 25 26 29 28 10 4 3 1 4 4 6 4 4 5 6 10 17 5 7 8 8 7 6 5 3 3 4 5 5 6 9 7 7 9 5 7 6 5
18 18 19 20 20 21 22 24 26 26 27 28 18 3 1 3 1 3 6 5 7 3 5 7 13 3 4 6 3 6 4 3 4 5 5 4 4 16 3 5 11 5 4 7 3 1 1
19 19 20 21 22 23 24 24 26 28 29 26 3 4 4 6 2 5 6 3 3 4 7 7 4 3 5 6 6 5 4 2 4 4 5 5 4 3 14 1 5 8 7 4 2 4 5
19 20 20 20 22 23 23 25 24 26 28 21 4 4 3 5 3 6 3 5 5 4 3 4 5 5 5 5 4 4 6 5 1 4 3 4 3 2 2 2 3 4 1 2 4 5 4
18 19 19 19 21 22 23 25 25 24 24 6 3 2 3 3 5 1 1 4 5 4 3 4 4 4 4 4 5 5 6 3 2 2 5 3 2 4 4 5 3 4 4 1 5 5 7
17 17 17 17 17 20 21 22 24 22 22 3 4 3 4 5 3 3 5 5 4 4 4 3 4 3 3 3 7 6 7 4 6 1 2 3 2 4 7 3 3 1 3 5 1 2 6
17 18 17 16 17 16 17 18 19 21 21 2 2 5 5 5 1 3 5 4 6 7 5 4 5 4 3 5 9 6 9 9 5 2 14 2 4 5 4 0 2 5 5 3 4 4 6
19 19 19 17 16 16 16 17 17 19 20 3 4 1 0 5 3 5 3 4 7 7 3 4 4 5 10 9 14 16 5 6 9 16 5 3 5 4 8 12 12 13 15 13 13 10 9
18 19 19 18 17 16 15 16 15 14 16 4 2 3 4 4 5 4 4 3 8 8 6 9 6 16 15 11 15 21 16 7 6 6 4 2 5 5 9 12 15 17 15 16 19 16 20
18 18 18 18 17 16 15 14 14 10 6 2 1 2 2 3 4 3 4 5 9 12 9 10 14 15 14 15 13 19 20 20 15 8 4 3 2 0 5 3 6 10 18 20 19 19 11
18 18 18 18 17 16 14 12 14 8 1 1 1 1 2 4 3 4 8 14 16 8 10 16 13 8 8 14 15 11 7 11 12 14 13 7 4 4 5 4 6 4 3 13 22 23 15
19 18 18 18 18 17 14 10 13 12 4 2 2 2 2 4 4 11 6 5 10 10 9 10 15 8 6 6 6 6 3 2 1 6 10 15 9 4 4 6 8 12 4 5 6 4 8
19 19 18 17 17 18 18 14 13 14 8 2 3 2 2 3 5 3 9 7 6 4 4 5 7 4 5 4 3 4 3 5 4 6 4 8 15 5 4 4 4 2 8 11 11 5 7
17 18 16 16 16 17 17 18 15 14 12 4 3 5 2 4 5 4 6 4 4 4 4 6 7 7 4 5 4 4 3 3 4 7 7 5 3 8 10 5 5 5 14 13 6 1 4
14 16 18 18 16 18 17 19 15 14 14 5 4 7 4 4 7 9 4 6 6 4 3 4 7 3 4 6 4 3 3 3 4 4 6 4 6 2 3 3 3 12 12 5 8 3 5
15 17 17 18 17 18 18 19 17 15 15 9 4 2 5 5 7 13 21 23 23 18 5 3 2 2 2 2 2 2 3 2 3 3 4 3 1 5 3 3 6 11 9 15 14 8 6
Wind_Direction
21 17 13 11 8 6 4 0 357 353 349 346 344 341 339 336 332 328 323 318 315 310 307 308 314 323 9 347 249 337 336 348 345 350 199 204 213 170 190 195 199 233 201 222 248 251 253
18 15 9 7 4 1 0 356 353 349 346 343 341 340 337 334 332 328 324 316 315 312 308 301 286 259 173 273 270 319 325 324 316 348 306 185 218 218 252 214 200 143 221 240 264 248 243
9 6 6 2 359 359 357 355 351 347 341 340 339 338 337 336 336 332 324 319 319 319 304 280 221 186 224 242 239 287 313 269 224 243 253 257 237 262 217 292 236 248 273 285 229 213 252
3 1 2 360 358 355 352 349 346 343 339 336 335 334 333 333 332 328 322 319 321 321 304 246 183 183 245 243 257 284 221 281 237 227 228 260 268 246 201 288 350 184 159 243 240 179 236
0 359 360 357 354 352 348 345 343 340 339 336 333 332 331 330 328 323 315 308 308 334 95 131 125 123 274 292 213 234 178 251 311 198 208 266 164 201 157 179 1 249 233 217 247 210 188
359 357 357 356 353 351 347 346 344 342 339 337 335 332 330 330 329 326 316 307 306 93 114 167 190 290 270 293 296 236 206 265 249 315 303 211 227 192 150 163 211 210 224 234 196 203 198
0 358 356 355 352 350 346 345 343 342 340 338 335 333 331 331 331 334 339 5 14 345 40 245 250 243 279 282 269 264 224 195 180 120 217 240 191 217 221 232 262 48 99 63 11 253 246
0 359 356 354 352 349 346 344 343 343 341 340 336 334 333 332 330 328 18 68 130 243 303 293 253 247 266 259 291 297 77 195 135 198 302 330 244 237 206 194 246 269 233 218 273 257 223
360 359 355 354 351 349 346 343 341 340 339 337 335 334 333 330 320 45 269 230 124 152 264 294 256 255 276 186 277 295 141 294 185 196 213 210 260 203 214 195 204 198 229 207 216 302 285
357 357 355 351 349 351 349 345 343 339 337 336 331 334 333 332 79 304 293 325 328 164 46 283 331 321 359 318 294 324 195 215 215 217 222 219 255 228 207 236 214 200 170 182 328 187 256
354 353 351 350 349 350 347 345 343 339 335 331 329 330 329 325 286 267 261 320 333 63 350 319 314 286 322 282 283 310 324 163 243 227 189 234 187 238 209 209 187 238 226 243 224 250 286
352 350 349 348 348 348 344 342 342 338 334 329 327 325 323 119 217 252 307 332 57 48 269 331 330 331 349 306 310 298 307 245 231 242 268 244 244 177 205 236 195 201 167 141 126 122 244
351 349 347 346 346 346 342 341 340 338 333 332 328 321 278 165 232 301 319 47 38 113 325 329 315 327 325 276 311 317 327 308 254 312 228 282 229 228 179 214 212 173 73 93 129 184 233
350 349 348 345 346 345 344 342 339 339 336 335 331 344 183 217 271 8 51 53 71 253 266 302 308 311 281 345 318 319 317 331 311 299 329 313 270 183 187 186 185 185 159 173 184 177 237
349 350 350 349 349 349 348 345 343 341 340 339 333 339 10 281 169 91 63 53 199 230 300 308 314 286 292 338 290 335 292 260 352 57 339 289 322 330 272 169 156 198 165 206 37 268 126
350 350 350 350 350 353 350 349 347 342 341 341 0 346 331 316 68 59 71 260 238 226 295 296 268 253 299 318 326 332 293 287 327 47 162 274 270 199 304 15 172 157 171 106 353 206 241
349 348 348 348 349 351 352 350 349 346 341 338 32 41 278 333 53 47 122 241 289 295 30 298 270 283 276 309 288 281 270 293 347 313 315 290 301 268 187 268 138 338 314 150 150 172 218
344 345 345 345 347 348 350 350 350 349 345 6 360 52 310 21 46 58 106 305 291 304 320 281 263 255 269 316 294 280 259 236 127 11 314 300 296 283 273 291 32 167 242 251 198 252 254
335 336 337 339 341 346 348 348 349 349 357 327 3 295 321 72 75 322 305 286 266 286 287 305 295 295 355 318 291 258 270 289 308 318 270 331 325 313 321 18 49 226 231 219 157 70 217
331 331 332 334 334 337 340 343 342 343 354 56 19 1 333 38 53 65 319 300 305 322 269 258 250 258 308 266 264 280 276 303 320 199 291 264 227 229 222 330 45 302 299 303 185 226 244
326 328 328 327 330 329 334 337 346 343 348 79 24 306 211 308 324 304 228 278 304 321 257 291 300 238 308 293 302 271 260 292 302 304 284 232 251 215 257 271 276 267 263 262 250 239 236
324 322 322 322 325 329 328 330 342 349 348 69 58 23 355 292 285 268 279 257 289 325 310 302 258 307 307 288 282 286 287 267 248 288 236 153 254 213 252 256 248 254 250 250 252 246 256
319 318 317 316 317 320 323 331 334 357 26 39 355 327 124 259 303 335 248 280 315 315 278 276 287 301 298 290 283 279 268 265 248 251 250 238 237 278 258 17 333 273 241 230 243 240 236
316 316 316 318 321 320 318 328 329 343 100 174 202 186 271 274 264 238 297 297 292 310 285 292 292 271 279 318 298 275 243 256 244 241 231 237 209 213 263 14 250 239 18 294 239 247 218
316 319 321 323 325 323 320 321 323 320 343 202 171 196 248 279 234 290 296 278 298 286 276 267 276 255 332 314 337 337 16 330 215 215 228 219 214 228 234 208 292 302 37 332 334 288 221
317 320 323 331 346 342 336 328 322 312 308 242 208 177 190 280 252 261 302 278 279 294 284 266 313 321 8 28 347 10 332 316 322 313 243 225 224 225 189 241 260 34 341 316 302 245 52
315 321 336 331 330 327 328 324 318 314 307 301 247 194 196 258 256 200 278 280 291 276 277 300 338 336 28 5 6 350 317 339 330 318 326 310 311 218 248 252 265 9 316 303 242 87 3
330 330 328 324 328 326 325 319 315 317 306 313 268 188 193 242 268 253 260 213 266 206 244 323 337 331 350 26 352 339 303 331 294 275 312 316 315 346 292 266 328 352 325 323 347 282 335
328 325 325 320 319 316 316 317 318 310 308 311 266 198 217 248 263 284 269 259 249 246 304 250 224 271 242 306 265 277 312 282 299 296 316 328 205 302 250 266 260 293 253 278 279 319 326